Weather History for McCook, NE

Change the Weather History Date:

Tuesday, July 30, 2013

  Actual Average Record
Temperature  
Mean Temperature 76 °F 76 °F  
Max Temperature 88 °F 89 °F 108 °F (1980)
Min Temperature 63 °F 62 °F 50 °F (2009)
Cooling Degree Days 10    
Growing Degree Days 24 (Base 50)    
Moisture  
Dew Point 63 °F    
Average Humidity 82    
Maximum Humidity 100    
Minimum Humidity 41    
Precipitation  
Precipitation 0.00 in 0.11 in 1.12 in (1950)
Month to date precipitation 1.63 3.14  
Year to date precipitation 7.62 14.46  
Sea Level Pressure  
Sea Level Pressure 30.08 in    
Wind  
Wind Speed 4 mph (NW)    
Max Wind Speed 13 mph    
Max Gust Speed -    
Visibility 5 miles    
Events Fog    
T = Trace of Precipitation, MM = Missing Value Source: NWS Daily Summary

Daily Weather History Graph

Daily Weather History Graph

Search for Another Location

Airport:

Trip Planner

Search our weather history database for the weather conditions in past years. The results will help you decide how hot, cold, wet, or windy it might be!

Date:

Astronomy

Jul. 30, 2013 Rise Set
Actual Time 6:38 AM CDT 8:58 PM CDT
Civil Twilight 6:08 AM CDT 9:28 PM CDT
Nautical Twilight 5:30 AM CDT 10:06 PM CDT
Astronomical Twilight 4:48 AM CDT 10:47 PM CDT
Moon 12:57 AM CDT (7/30) 3:20 PM CDT (7/30)
Length of Visible Light 15h 20m
Length of Day
14h 19m
Last Quarter, 41% of the Moon is Illuminated
Jul 30
Last Quarter
Aug 6
New
Aug 14
First Quarter
Aug 20
Full
Aug 28
Last Quarter

Hourly Weather History & Observations

Time (CDT) Temp. Heat Index Dew Point Humidity Pressure Visibility Wind Dir Wind Speed Gust Speed Precip Events Conditions
12:04 AM 66.2 °F - 64.4 °F 94% 30.07 in 4.0 mi ENE 8.1 mph - N/A   Overcast
12:13 AM 66.2 °F - 64.4 °F 94% 30.07 in 4.0 mi East 6.9 mph - N/A   Overcast
12:53 AM 64.0 °F - 63.0 °F 96% 30.04 in 3.0 mi Calm Calm - N/A   Scattered Clouds
1:09 AM 64.4 °F - 62.6 °F 94% 30.10 in 2.5 mi Calm Calm - N/A   Mostly Cloudy
1:53 AM 64.9 °F - 64.0 °F 97% 30.05 in 2.5 mi Calm Calm - N/A   Overcast
2:13 AM 66.2 °F - 62.6 °F 88% 30.09 in 3.0 mi Calm Calm - N/A   Overcast
2:46 AM 64.4 °F - 64.4 °F 100% 30.10 in 2.5 mi NW 3.5 mph - N/A   Overcast
2:53 AM 64.9 °F - 64.0 °F 97% 30.05 in 2.5 mi Calm Calm - N/A   Overcast
3:12 AM 66.2 °F - 64.4 °F 94% 30.10 in 3.0 mi Calm Calm - N/A   Overcast
3:28 AM 66.2 °F - 64.4 °F 94% 30.10 in 2.5 mi Calm Calm - N/A   Overcast
3:50 AM 66.2 °F - 64.4 °F 94% 30.11 in 2.5 mi Calm Calm - N/A   Overcast
3:53 AM 66.0 °F - 64.0 °F 93% 30.06 in 2.5 mi Calm Calm - N/A   Overcast
4:53 AM 66.0 °F - 64.0 °F 93% 30.07 in 3.0 mi Calm Calm - N/A   Overcast
5:11 AM 64.4 °F - 64.4 °F 100% 30.12 in 2.5 mi Calm Calm - N/A   Overcast
5:43 AM 64.4 °F - 62.6 °F 94% 30.11 in 2.0 mi NW 3.5 mph - N/A   Scattered Clouds
5:53 AM 63.0 °F - 62.1 °F 97% 30.07 in 1.5 mi NW 3.5 mph - N/A   Partly Cloudy
6:11 AM 62.6 °F - 62.6 °F 100% 30.12 in 1.5 mi WNW 5.8 mph - N/A   Mostly Cloudy
6:19 AM 62.6 °F - 62.6 °F 100% 30.12 in 0.2 mi WNW 4.6 mph - N/A Fog Fog
6:35 AM 64.4 °F - 62.6 °F 94% 30.12 in 1.8 mi NW 5.8 mph - N/A   Overcast
6:45 AM 64.4 °F - 62.6 °F 94% 30.13 in 2.0 mi WNW 4.6 mph - N/A   Overcast
6:53 AM 64.0 °F - 63.0 °F 96% 30.08 in 1.8 mi WNW 4.6 mph - N/A   Overcast
7:23 AM 64.4 °F - 62.6 °F 94% 30.13 in 2.0 mi Calm Calm - N/A   Overcast
7:40 AM 64.4 °F - 62.6 °F 94% 30.13 in 2.5 mi WNW 3.5 mph - N/A   Overcast
7:53 AM 64.9 °F - 63.0 °F 93% 30.08 in 2.5 mi West 5.8 mph - N/A   Overcast
8:39 AM 66.2 °F - 62.6 °F 88% 30.14 in 3.0 mi West 5.8 mph - N/A   Overcast
8:53 AM 66.0 °F - 63.0 °F 90% 30.09 in 3.0 mi WNW 3.5 mph - N/A   Overcast
9:53 AM 66.9 °F - 63.0 °F 87% 30.11 in 3.0 mi Calm Calm - N/A   Overcast
10:53 AM 70.0 °F - 64.0 °F 81% 30.09 in 3.0 mi Calm Calm - N/A   Haze
11:41 AM 73.4 °F - 64.4 °F 73% 30.15 in 4.0 mi West 3.5 mph - N/A   Haze
11:53 AM 73.9 °F - 64.0 °F 71% 30.09 in 5.0 mi Calm Calm - N/A   Haze
12:53 PM 80.1 °F 81.9 °F 64.9 °F 60% 30.08 in 8.0 mi Calm Calm - N/A   Scattered Clouds
1:53 PM 82.0 °F 83.8 °F 64.9 °F 56% 30.06 in 10.0 mi ESE 9.2 mph - N/A   Clear
2:53 PM 82.9 °F 84.0 °F 63.0 °F 51% 30.05 in 10.0 mi ESE 5.8 mph - N/A   Clear
3:53 PM 84.9 °F 85.4 °F 62.1 °F 46% 30.04 in 10.0 mi ESE 9.2 mph - N/A   Clear
4:53 PM 86.0 °F 86.1 °F 61.0 °F 43% 30.03 in 10.0 mi East 9.2 mph - N/A   Clear
5:53 PM 87.1 °F 87.0 °F 61.0 °F 41% 30.02 in 10.0 mi Variable 5.8 mph - N/A   Clear
6:53 PM 84.9 °F 85.0 °F 61.0 °F 44% 30.01 in 10.0 mi SE 9.2 mph - N/A   Clear
7:53 PM 82.9 °F 83.3 °F 61.0 °F 47% 30.00 in 10.0 mi SE 8.1 mph - N/A   Clear
8:53 PM 78.1 °F - 62.1 °F 58% 30.03 in 10.0 mi ESE 8.1 mph - N/A   Clear
9:53 PM 75.0 °F - 62.1 °F 64% 30.06 in 10.0 mi ESE 8.1 mph - N/A   Clear
10:53 PM 75.0 °F - 63.0 °F 66% 30.09 in 10.0 mi East 12.7 mph - N/A   Partly Cloudy
11:53 PM 71.1 °F - 63.0 °F 75% 30.09 in 10.0 mi South 10.4 mph - N/A   Clear